sat.trackr.live / text

‹ back to catalog

STARLINK-11314 [DTC]

NORAD 61878 · 2024-204E

PAYLOAD ACTIVE UNKNOWN

§ Identity

Operator
Country
US
Launch date
2024-11-09
Launch site
AFWTR
Launch vehicle
Mass (kg)
RCS (m²)

Purposes: comms

External: N2YO · Heavens-Above · Gunter

§ Orbital elements

Epoch: 2026-09-21T19:11:40.699968Z

Period
91.74 min
Inclination
53.1597°
Eccentricity
0.0000989
Mean motion
15.69707527 rev/d
Perigee alt
359.1 km
Apogee alt
360.4 km
Semi-major
6,737.9 km
B*
-9.3689e-7
RAAN
109.6800°
Arg perigee
69.9367°
Mean anomaly
290.1758°
Rev number
10,771

§ Raw data

STARLINK-11314 [DTC]1 61878U 24204E   26264.79977662 -.00000702  00000+0 -93689-6 0  99962 61878  53.1597 109.6800 0000989  69.9367 290.1758 15.69707527107719

JSON: /api/v1/satellites/61878 · /tle

For live sub-satellite position, see the globe view (requires WebGL).

§ Visibility from observer

Set your observer location to see the next 7 days of passes ≥ 10°. The values pass through the URL so the page stays shareable.

No JS? Fill the form by hand. The geolocation button needs JavaScript.